Regional Weather Roundup
Issued by NWS

Home | Current Version | Previous Version | Graphics & Text | Print | Product List | Glossary On
Versions: 1 2 3 4 5 6 7 8 9 10 11 12 13 14 15 16 17 18 19 20 21 22 23 24 25 26 27 28 29 30 31 32 33 34 35 36 37 38 39 40 41 42 43 44 45 46 47 48 49 50
000
ASUS43 KLMK 270402
RWRKY
KENTUCKY REGIONAL WEATHER ROUNDUP
NATIONAL WEATHER SERVICE LOUISVILLE KY
1200 AM EDT THU JUL 27 2017

NOTE "FAIR" INDICATES FEW OR NO CLOUDS BELOW 12,000 FEET
WITH NO SIGNIFICANT WEATHER AND/OR OBSTRUCTIONS TO VISIBILITY.

KYZ001>023-026-027-061>063-070>075-270500-
WESTERN AND SOUTH CENTRAL KENTUCKY

CITY           SKY/WX    TMP DP  RH WIND       PRES   REMARKS
PADUCAH        CLOUDY    83  74  74 S7        29.98F
HENDERSON      PTCLDY    75  73  93 CALM      30.00S
OWENSBORO      CLOUDY    77  74  90 S3        30.00F
HOPKINSVILLE   MOCLDY    83  76  79 W9        30.01F HX  91
BOWLING GREEN  CLOUDY    82  75  79 CALM      30.02F
GLASGOW        NOT AVBL
$$

KYZ024-025-028>034-038-045-046-053-270500-
NORTH CENTRAL KENTUCKY

CITY           SKY/WX    TMP DP  RH WIND       PRES   REMARKS
LOUISVILLE/SDF CLOUDY    82  71  69 CALM      30.00F
LOUISVILLE/LOU CLOUDY    82  73  74 SW3       30.01F
FORT KNOX      CLOUDY    77  75  93 CALM      30.00F
$$

KYZ035>037-039>044-047>052-055>060-089>105-270500-
NORTHEAST KENTUCKY

CITY           SKY/WX    TMP DP  RH WIND       PRES   REMARKS
LEXINGTON      CLOUDY    79  70  74 S5        30.04F
COVINGTON      CLOUDY    78  70  76 SE9       30.03F
FRANKFORT      CLOUDY    80  71  74 CALM      30.02F
$$

KYZ054-064>069-076>088-106>120-270500-
SOUTHEAST KENTUCKY

CITY           SKY/WX    TMP DP  RH WIND       PRES   REMARKS
JACKSON        CLOUDY    76  69  79 SE3       30.09S
LONDON         PTCLDY    75  70  84 CALM      30.08R
SOMERSET       CLOUDY    75  70  83 CALM      30.08S
MIDDLESBORO    CLEAR     74  71  90 CALM      30.09S
MONTICELLO     PTCLDY    74  72  93 VRB5      30.09R
$$





USA.gov is the U.S. government's official web portal to all federal, state and local government web resources and services.